User: anonymous   Login
Location: Melbourne
(37.8170°S, 144.9670°E)
Time: 00:53:53
(UTC+11:00)
Language:

Cosmos 962 Rocket - Orbit

View from above orbital plane
View from above orbital plane
View from above satellite
View from above satellite

Ground track
Ground track

The orbit data is extracted from the following two-line orbital elements,

1 10461U 77107B   14326.82346622 -.00000025  00000-0 -40464-4 0  6812
2 10461 082.9474 349.2543 0032272 249.5996 174.0483 13.76704348861799
Epoch (UTC): 22 November 2014 19:45:47
Eccentricity: 0.0032272
inclination: 82.9474°
perigee height: 952 km
apogee height: 999 km
right ascension of ascending node: 349.2543°
argument of perigee: 249.5996°
revolutions per day: 13.76704348
mean anomaly at epoch: 174.0483°
orbit number at epoch: 86179

The dashed part of the orbit path shows where the satellite is in the earth's shadow,  

DLR